Spokane, WA
on Wednesday, November 7, 2012

Wednesday
Previous Day Next Day
Daily Summary
 ActualAverageRecord
Temperature
Mean Temperature °F 39°F  
Max Temperature 51°F 46°F 60°F (2006)
Min Temperature 33°F 32°F 14°F (1936)
Degree Days
Heating Degree Days 23 26  
Month to date heating degree days 118 175  
Since 1 July heating degree days 724 963  
Cooling Degree Days 0 0  
Month to date cooling degree days 0 0  
Year to date cooling degree days 535 450  
Moisture
Dew Point 32°F   
Average Humidity 65    
Maximum Humidity 93    
Minimum Humidity 37    
Precipitation
Precipitation T in 0.07 in 1.38 in (1885)
Month to date precipitation 0.30 0.46  
Year to date precipitation 15.80 12.42  
Snow
Snow 0.00 in 0.10 in 2.70 in (1995)
Month to date snowfall 0.0 0.6  
Since 1 July snowfall T 0.7  
Since 1 September snowfall T 0.7  
Snow Depth 0.00 in   
Wind
Wind Speed 12 mph   
Max Wind Speed 23 mph   
Max Gust Speed 28 mph   
Visibility 10 miles   
Events     

Key: T is trace of precipitation, MM is missing value
Source: NWS Daily Summary
Time(PST)TemperatureDew PointHumidity Pressure Visibility Wind DirectionWind SpeedGust SpeedPrecipitationEvents Conditions
12:53 AM 50.0°F 48.0°F 93% 29.88 in 5.0 miles SSW 12.7 mph - 0.00 in   Overcast
1:53 AM 50.0°F 46.9°F 89% 29.87 in 6.0 miles SW 13.8 mph - 0.00 in   Overcast
2:53 AM 48.9°F 46.0°F 90% 29.88 in 7.0 miles SW 15.0 mph - N/A   Overcast
3:53 AM 46.9°F 39.0°F 74% 29.89 in 10.0 miles WSW 15.0 mph 24.2 mph 0.00 in   Mostly Cloudy
4:53 AM 43.0°F 35.1°F 74% 29.90 in 10.0 miles SW 16.1 mph - N/A   Scattered Clouds
5:53 AM 42.1°F 32.0°F 67% 29.94 in 10.0 miles WSW 9.2 mph - N/A   Partly Cloudy
6:27 AM 41.0°F 33.8°F 76% 29.93 in 10.0 miles WSW 13.8 mph - N/A   Scattered Clouds
6:53 AM 39.9°F 34.0°F 79% 29.95 in 10.0 miles SW 12.7 mph - N/A   Scattered Clouds
7:53 AM 41.0°F 34.0°F 76% 29.97 in 10.0 miles SW 13.8 mph - N/A   Partly Cloudy
8:53 AM 44.1°F 30.9°F 60% 29.99 in 10.0 miles WSW 18.4 mph - N/A   Partly Cloudy
9:53 AM 46.9°F 28.9°F 50% 29.99 in 10.0 miles WSW 18.4 mph 26.5 mph N/A   Partly Cloudy
10:53 AM 46.9°F 30.0°F 52% 30.00 in 10.0 miles WSW 16.1 mph - N/A   Scattered Clouds
11:53 AM 48.9°F 30.0°F 48% 30.00 in 10.0 miles SW 15.0 mph - N/A   Scattered Clouds
12:53 PM 50.0°F 28.0°F 43% 30.00 in 10.0 miles WSW 13.8 mph - N/A   Scattered Clouds
1:53 PM 48.9°F 27.0°F 43% 30.00 in 10.0 miles WSW 12.7 mph 21.9 mph N/A   Scattered Clouds
2:53 PM 50.0°F 26.1°F 39% 30.00 in 10.0 miles SW 17.3 mph - N/A   Scattered Clouds
3:53 PM 46.9°F 21.9°F 37% 30.02 in 10.0 miles WSW 12.7 mph - N/A   Scattered Clouds
4:53 PM 43.0°F 24.1°F 47% 30.03 in 10.0 miles SW 10.4 mph - N/A   Scattered Clouds
5:53 PM 42.1°F 25.0°F 51% 30.04 in 10.0 miles SSW 9.2 mph - N/A   Partly Cloudy
6:53 PM 39.9°F 28.0°F 63% 30.04 in 10.0 miles South 5.8 mph - N/A   Partly Cloudy
7:53 PM 39.0°F 27.0°F 62% 30.03 in 10.0 miles SSW 6.9 mph - N/A   Clear
8:53 PM 37.0°F 27.0°F 67% 30.02 in 10.0 miles SE 8.1 mph - N/A   Partly Cloudy
9:53 PM 35.1°F 27.0°F 72% 30.01 in 10.0 miles SE 4.6 mph - N/A   Partly Cloudy
10:53 PM 35.1°F 28.9°F 78% 29.99 in 10.0 miles SSE 4.6 mph - N/A   Clear
11:53 PM 33.1°F 28.0°F 82% 29.98 in 10.0 miles Calm Calm - N/A   Clear
Moon Phase
Nov. 07 Nov. 13 Nov. 20 Nov. 28 Dec. 06
Sunrise:06:44 AM (PST) Moon Rise:No Moon Rise/
Sunset:04:22 PM (PST) Moon Set:01:00 PM (PST)11/7

Copyright © 2014 The Weather Underground, Inc.